SCP
0 1 1 1 1 1 1 1 1 1 1 1 1 1 1 1 1 1 1 0 0 1 1 1 0 0 0 0 0 0 0 0 0 0 0 0 0 0 0 0 0 1 1
0 1 1 1 1 1 1 1 1 1 1 1 1 1 1 1 1 1 1 1 1 1 1 1 0 0 0 0 0 0 0 0 0 0 0 0 0 0 0 0 0 0 0
1 1 1 1 1 1 1 1 1 1 1 1 1 1 1 1 1 1 1 1 1 1 1 1 1 0 0 0 0 0 0 0 0 0 0 0 0 0 0 0 0 0 0
1 1 1 1 2 1 1 1 1 0 0 0 1 1 1 1 1 1 1 1 1 1 1 1 0 0 0 0 0 0 0 0 0 0 0 0 0 0 0 0 0 0 0
1 1 1 1 2 2 1 1 1 1 1 0 0 1 1 1 1 1 1 1 1 1 1 1 0 0 0 0 0 0 0 0 0 0 0 0 0 0 0 0 0 1 1
1 1 1 2 2 2 2 1 1 1 1 1 1 1 1 1 1 1 1 1 1 1 1 1 0 0 0 0 0 0 0 0 0 0 0 0 0 0 0 0 0 1 1
2 2 2 2 2 2 2 2 1 1 1 1 1 1 1 1 1 1 1 1 1 1 1 1 0 0 0 0 0 1 1 0 0 0 0 0 0 0 0 0 0 1 1
2 2 2 2 2 2 2 2 1 1 1 1 1 1 1 1 1 1 1 1 1 1 1 1 1 0 0 0 0 0 0 0 0 0 0 0 0 0 0 0 0 1 1
3 3 3 2 2 2 2 2 1 1 1 1 1 0 0 0 0 0 0 0 0 1 1 1 1 1 1 0 0 0 0 0 0 0 0 0 0 0 0 1 1 1 1
3 4 4 3 2 2 2 1 1 1 1 1 0 0 0 0 0 0 0 0 0 1 1 1 1 1 1 0 0 0 0 0 0 0 0 0 0 1 1 1 1 1 1
3 4 4 3 2 2 2 1 1 0 0 0 0 0 0 0 0 0 0 0 0 1 1 1 1 1 1 0 0 0 0 0 0 0 0 1 1 1 1 1 1 1 1
2 3 4 4 3 2 2 1 1 0 0 0 0 0 0 0 0 0 0 0 0 0 1 1 1 1 0 0 0 0 0 0 0 0 0 1 1 1 2 2 1 1 1
1 3 4 4 3 3 2 1 1 0 0 0 0 0 0 0 0 0 0 0 0 0 0 1 1 0 0 0 0 0 0 0 0 0 0 0 1 1 1 1 1 1 1
1 1 3 3 3 3 2 1 1 0 0 0 0 0 0 0 0 0 0 0 0 0 0 1 0 0 0 0 0 0 0 0 0 0 0 0 0 1 1 1 1 1 1
1 1 1 2 3 2 2 1 1 0 0 0 0 0 0 0 0 0 0 0 0 0 0 0 0 0 0 0 0 0 0 0 0 0 0 0 0 0 0 1 1 1 1
0 1 1 1 2 2 2 1 1 1 1 0 0 0 0 0 0 0 0 0 0 0 0 0 0 0 0 0 0 0 0 0 0 0 0 0 0 0 0 1 1 1 1
0 1 1 1 1 2 1 1 1 1 1 1 0 0 0 0 0 0 0 0 0 0 0 0 0 0 0 0 0 0 0 0 0 0 0 0 0 0 0 0 0 1 1
1 1 1 1 1 1 1 1 1 1 1 1 0 0 0 0 0 0 0 0 0 0 0 0 0 0 0 0 0 0 0 0 0 0 0 0 0 0 0 0 0 0 0
1 1 0 1 1 1 1 1 1 1 1 1 1 0 1 1 0 0 0 0 0 0 0 0 0 0 0 0 0 0 0 0 0 0 0 0 0 0 0 0 0 0 0
1 1 1 1 1 1 0 0 1 1 1 1 1 0 1 1 0 0 0 0 0 0 0 0 0 0 0 0 0 0 0 0 0 0 0 0 0 0 0 0 0 0 0
1 1 1 1 1 1 0 0 0 1 1 1 1 0 0 0 0 0 0 0 0 0 0 0 0 0 0 0 0 0 0 0 0 0 0 0 0 0 0 0 0 0 0
1 1 1 1 1 1 0 0 0 0 0 0 0 0 0 0 0 0 0 0 0 0 0 0 0 0 0 0 0 0 0 0 0 0 0 0 0 0 0 0 0 0 0
1 1 1 1 1 1 0 0 0 0 0 0 0 0 0 0 0 0 0 0 0 0 0 0 0 0 0 0 0 0 0 0 0 0 0 0 0 0 0 0 0 0 0
1 1 1 1 1 1 0 0 0 0 0 0 0 0 0 0 0 0 0 0 0 0 0 0 0 0 0 0 0 0 0 0 0 0 0 0 0 0 0 0 0 0 0
1 1 1 1 1 1 1 0 0 0 0 0 0 0 0 0 0 0 0 0 0 0 0 0 0 0 0 0 0 0 0 0 0 0 0 0 0 0 0 0 0 0 0
1 1 2 1 1 1 1 0 0 0 0 0 0 0 0 0 0 0 0 0 0 0 0 0 0 0 0 0 0 0 0 0 0 0 0 0 0 0 0 0 0 0 0
Wind_Speed
2 3 5 6 7 7 8 8 8 8 8 8 8 8 8 8 8 8 8 8 7 8 8 9 9 9 10 10 10 11 11 11 11 11 11 10 10 10 10 10 9 6 11
5 4 6 6 7 8 8 8 8 7 7 8 8 8 8 7 7 8 8 7 7 8 8 9 9 9 9 9 10 10 10 11 11 11 10 9 9 10 10 10 10 7 10
7 5 6 6 7 8 8 8 7 7 7 7 7 7 7 7 7 8 7 7 8 8 8 8 8 8 8 8 9 9 10 10 10 11 9 5 5 9 10 10 10 10 10
7 6 5 6 7 7 7 7 7 7 7 6 7 6 6 6 7 7 7 7 7 7 7 7 7 7 7 7 8 9 10 10 10 9 5 4 4 8 9 9 10 10 9
6 5 5 6 7 7 7 7 7 7 7 6 6 6 6 6 6 6 7 6 6 6 7 7 7 7 8 8 8 8 9 9 9 7 4 4 3 7 8 8 8 9 9
5 4 5 6 7 7 6 7 7 6 6 5 5 5 6 6 6 6 6 6 6 6 6 7 7 7 8 8 8 9 9 9 7 4 4 3 3 6 7 8 8 8 9
5 4 5 6 6 7 6 6 6 6 5 5 5 5 5 5 5 6 6 6 6 6 6 6 6 7 7 7 8 9 9 8 5 4 3 3 4 7 7 7 8 8 9
6 5 5 6 6 6 5 6 6 6 5 5 5 5 5 5 5 5 5 5 5 5 5 5 6 6 7 7 7 8 8 8 5 4 3 2 5 6 6 7 7 7 7
5 4 3 3 4 5 5 5 5 5 5 5 5 5 4 5 5 5 5 4 4 4 4 4 5 6 6 6 6 7 8 8 4 2 2 2 4 5 5 6 6 6 7
4 4 3 3 2 3 3 4 5 4 5 5 4 4 4 4 4 5 4 4 4 4 4 4 5 6 6 6 6 7 7 6 3 2 1 2 4 4 5 5 6 6 6
3 3 3 3 2 2 2 3 3 4 4 4 3 4 4 2 2 2 3 4 4 4 4 4 5 6 6 6 6 6 5 2 2 2 1 3 4 4 5 5 5 5 5
4 4 3 3 3 3 2 2 2 2 2 2 2 2 1 1 1 2 3 3 3 3 4 5 5 5 4 2 3 4 2 2 2 2 2 3 3 4 4 4 4 4 4
5 4 4 4 3 3 2 2 1 1 1 1 1 1 1 1 1 1 1 1 1 2 2 3 3 2 2 2 2 2 2 2 1 1 2 4 4 4 4 4 4 3 4
5 5 4 4 4 3 3 2 2 2 1 1 1 2 2 1 1 1 1 1 1 1 1 1 1 2 2 2 2 2 2 1 1 1 2 4 4 4 3 2 2 3 3
5 5 4 4 4 4 3 2 2 2 2 2 1 2 2 2 2 2 1 1 1 1 1 1 2 2 2 1 1 2 2 2 2 2 2 4 4 4 4 4 3 2 2
6 6 4 5 5 4 4 3 2 2 2 2 2 2 2 2 2 2 2 1 1 1 1 2 2 2 1 1 1 1 1 1 2 2 1 2 4 3 3 3 4 4 4
7 6 5 5 5 5 4 4 3 2 2 2 2 2 2 2 3 2 2 2 2 2 2 2 2 2 2 1 1 1 1 1 2 2 1 1 1 3 3 3 3 3 3
6 6 6 5 5 5 4 4 3 3 3 2 2 2 2 2 3 3 2 2 2 1 1 2 2 2 1 1 0 0 0 1 1 1 1 1 1 1 2 3 4 4 4
7 6 6 5 6 6 5 4 3 3 3 2 2 2 2 2 2 2 2 2 2 2 1 2 2 2 2 1 0 0 0 0 0 1 1 1 1 1 0 2 3 4 5
6 6 6 6 6 5 4 2 2 2 2 2 2 2 2 2 2 2 2 2 3 2 2 2 2 1 2 2 1 1 1 1 0 1 1 1 0 1 0 0 1 3 5
5 6 6 6 6 5 4 3 3 3 2 2 2 2 2 2 3 3 2 2 2 3 3 3 2 2 1 2 2 1 2 1 1 1 1 1 1 1 0 1 1 1 2
7 6 6 7 7 6 5 4 3 3 2 2 1 2 2 2 3 3 3 3 3 2 3 3 3 2 1 1 2 1 1 2 1 1 1 1 1 1 1 1 1 1 1
7 7 6 7 7 6 5 3 2 2 1 1 1 2 2 2 2 2 3 3 3 3 3 4 4 4 3 1 1 3 3 3 1 2 1 1 1 1 1 1 1 1 2
8 6 6 6 7 6 6 5 6 4 4 4 3 2 1 2 2 2 2 3 3 3 3 3 3 3 3 3 1 1 2 2 2 1 2 1 1 2 2 2 2 2 2
6 6 6 6 6 6 7 7 6 4 3 2 1 2 2 1 1 2 2 3 3 3 3 3 3 3 3 3 3 2 1 1 1 2 3 2 2 2 2 2 2 2 2
5 5 5 6 6 6 7 7 6 6 4 3 3 3 2 2 2 2 2 2 3 2 3 3 3 4 3 3 3 2 3 3 3 3 3 3 3 2 2 2 2 2 2
Wind_Direction
171 173 145 130 119 110 102 96 93 93 90 86 85 85 83 82 82 83 83 83 81 82 83 83 82 81 80 78 78 75 71 69 70 68 68 66 69 72 69 64 62 59 67
156 160 139 133 123 115 107 100 92 90 92 91 89 87 84 83 84 86 83 82 83 83 83 85 84 80 81 81 80 77 73 72 70 65 62 59 64 69 69 67 65 67 69
143 148 140 130 121 116 110 104 99 92 92 96 96 93 88 85 84 82 82 83 85 83 83 84 86 85 85 86 83 79 79 78 72 65 56 44 56 68 69 67 64 68 70
142 141 140 127 122 117 112 106 101 96 91 98 100 99 96 90 88 85 80 80 83 81 82 84 89 90 87 87 84 81 82 81 74 65 50 37 43 69 71 68 64 66 69
134 133 137 124 123 119 114 109 104 98 96 94 102 104 102 96 92 88 84 83 84 84 80 81 84 87 88 89 85 82 85 82 74 61 49 38 39 72 74 72 69 66 65
130 131 135 124 124 121 116 111 110 105 104 103 101 105 104 98 93 90 89 89 85 85 84 82 82 85 88 89 86 84 84 81 71 62 55 43 42 72 75 74 71 70 68
134 135 141 127 124 123 120 116 117 111 105 106 106 104 103 96 94 93 90 88 86 84 82 84 88 89 88 87 85 82 76 72 71 64 55 43 53 67 72 72 69 68 67
138 138 139 130 125 123 121 119 118 113 106 103 104 102 99 95 92 91 88 90 91 88 88 87 95 92 85 83 83 77 69 67 68 65 54 45 59 67 70 70 67 67 63
127 129 132 144 137 126 118 114 110 110 108 106 100 93 89 84 83 81 79 85 88 90 90 87 96 97 91 83 82 76 72 65 61 59 63 47 62 70 69 68 67 65 64
124 134 136 131 130 136 135 117 107 102 105 105 99 87 81 77 74 65 62 73 81 84 87 84 95 93 88 79 72 72 72 63 52 47 38 56 68 75 70 68 67 68 68
141 153 151 145 138 134 137 124 117 108 102 100 100 94 86 75 66 55 53 61 71 79 84 82 92 90 80 73 69 65 65 57 54 38 31 64 80 81 77 70 68 68 70
177 179 166 161 155 144 142 131 140 132 118 109 110 109 101 92 82 74 62 61 58 66 80 77 77 79 74 65 62 62 62 57 55 32 31 71 88 80 79 73 68 71 75
179 180 181 171 163 153 151 148 155 146 132 130 138 138 126 109 93 76 84 70 61 60 71 70 67 68 73 80 79 70 70 64 56 25 24 63 74 74 73 69 62 63 65
176 186 191 179 166 163 159 162 160 157 161 165 169 158 146 141 138 142 133 133 108 99 116 109 98 89 81 82 95 87 77 77 70 45 34 49 55 56 51 49 52 55 55
188 191 191 184 175 169 162 167 159 175 176 177 175 170 161 164 170 164 159 163 164 141 152 139 123 117 105 95 95 95 94 102 92 72 39 46 52 47 42 36 29 32 30
199 196 187 183 180 172 170 174 176 181 180 177 181 183 175 172 173 169 172 181 176 170 166 157 148 137 123 110 103 121 127 114 96 92 77 38 36 40 32 30 29 25 18
199 191 187 185 180 177 178 179 176 181 176 182 187 185 178 177 179 175 175 185 192 173 151 146 133 123 115 97 98 116 119 120 121 113 106 83 16 21 21 12 10 5 358
189 190 191 185 183 185 182 181 181 179 181 189 185 182 182 181 180 173 174 188 177 151 146 154 142 125 117 128 131 55 96 124 133 132 121 111 82 23 7 11 1 349 335
191 190 189 189 185 187 184 180 179 174 179 186 181 179 184 178 173 171 178 178 164 153 152 157 140 143 144 146 149 86 88 146 181 139 146 138 129 101 9 348 349 345 330
190 189 187 189 188 183 174 162 162 168 180 185 191 189 184 184 180 174 177 176 168 161 164 160 153 145 147 146 99 42 355 282 247 204 203 180 171 183 208 303 326 333 329
189 190 190 191 191 178 172 170 179 194 194 197 201 193 188 191 185 176 175 169 175 180 183 173 157 155 147 128 105 20 350 327 276 260 226 195 233 235 202 240 254 281 316
195 194 193 196 191 185 185 182 182 178 188 197 197 197 197 195 193 184 179 182 181 182 180 175 165 161 167 157 151 136 326 329 332 278 218 210 245 256 249 250 239 250 274
198 196 198 199 193 189 180 159 134 111 102 159 208 215 220 201 194 190 186 184 183 181 196 192 182 172 181 202 175 164 174 220 289 306 267 229 238 238 255 251 244 252 259
202 195 195 196 194 188 175 170 169 177 188 202 201 205 229 216 202 190 184 183 188 186 198 202 190 184 176 194 211 235 212 171 174 269 305 293 262 242 249 260 258 256 259
195 191 193 188 193 188 180 180 182 189 195 180 173 183 212 231 218 195 188 185 191 191 196 197 192 189 191 194 195 193 209 226 197 195 254 277 290 266 256 250 245 251 262
192 192 189 188 195 190 185 186 188 188 183 173 187 201 211 218 225 222 206 198 198 199 197 202 202 198 201 202 204 197 190 192 199 198 227 249 260 268 263 249 240 246 251